Location: Red n Blue Observatory
(38.4831°N, 87.0953°W)
Time: 13:21:50
(UTC-04:00)

ISS - Visible Passes

Search period start: 08 September 2024 00:00
Search period end: 18 September 2024 00:00
Orbit: 415 x 425 km, 51.6° (Epoch: 08 September)

Date Brightness Start Highest point End Pass type
(mag) Time Alt. Az. Time Alt. Az. Time Alt. Az.
08 Sep -3.6 05:41:46 63° SSE 05:41:46 63° SSE 05:44:44 10° SE visible
09 Sep -1.7 06:31:14 13° SW 06:31:14 13° SW 06:32:15 10° SSW visible
09 Sep -3.0 21:33:07 10° SSW 21:35:35 37° S 21:35:35 37° S visible
10 Sep -2.6 20:46:20 10° S 20:49:07 25° SE 20:51:22 13° E visible
10 Sep -1.4 22:22:44 10° W 22:24:25 23° WNW 22:24:25 23° WNW visible
11 Sep -3.1 21:35:06 10° WSW 21:38:23 55° NW 21:39:48 29° NNE visible
12 Sep -3.8 20:47:36 10° SW 20:50:57 84° SE 20:54:19 10° NE visible
12 Sep -0.9 22:25:50 10° WNW 22:27:51 17° NNW 22:27:51 17° NNW visible
13 Sep -1.5 21:37:42 10° W 21:40:28 23° NNW 21:42:38 13° NNE visible
14 Sep -2.1 20:49:42 10° W 20:52:47 33° NNW 20:55:53 10° NE visible
14 Sep -0.5 22:29:26 10° NNW 22:30:09 11° NNW 22:30:09 11° NNW visible
15 Sep -0.9 21:40:48 10° NW 21:42:31 13° NNW 21:44:14 10° NNE visible
16 Sep -1.1 20:52:19 10° WNW 20:54:37 17° NNW 20:56:55 10° NNE visible
